Hourly Data Report for January 07, 2022

OTTAWA INTL A
ONTARIO
Current Station Operator: NAVCAN

45°19'00.000" N
75°40'00.000" W
114.90 m
6106001
71628
YOW

Download Data

Hourly Data (January 2022)
Hourly Data Report for January 7, 2022
TIME
LST
Temp Definition
°C
Dew Point Definition
°C
Rel Hum Definition
%
Precip. Amount Definition
mm

Wind Dir Definition
10's deg

Wind Spd Definition
km/h
Visibility Definition
km
Stn Press Definition
kPa
Hmdx Definition


Wind Chill Definition


Weather Definition


00:00 -12.2 -14.4 84   28 5 24.1 99.94   -15 LegendNANA
01:00 -12.2 -14.4 84   30 7 16.1 99.93   -17 Snow
02:00 -11.7 -13.8 84   32 8 16.1 99.90   -16 Snow
03:00 -11.4 -13.7 83   36 10 24.1 99.84   -17 Snow
04:00 -11.3 -13.6 83   33 8 16.1 99.82   -16 Snow
05:00 -11.5 -13.6 85   34 9 16.1 99.78   -17 Snow
06:00 -11.7 -13.6 86   32 14 16.1 99.81   -19 Snow
07:00 -11.7 -13.8 85   32 13 4.8 99.82   -18 Snow
08:00 -11.7 -13.4 87   32 12 4.8 99.83   -18 Snow
09:00 -11.9 -13.7 87   29 14 4.8 99.84   -19 Snow
10:00 -12.4 -14.6 83   30 15 12.9 99.91   -20 Snow
11:00 -10.9 -13.7 80   30 11 12.9 99.90   -17 Snow
12:00 -11.2 -14.4 77   29 18 24.1 99.86   -19 LegendNANA
13:00 -10.6 -15.1 70   29 21 24.1 99.83   -19 Mainly Clear
14:00 -10.9 -15.8 68   27 27 24.1 99.86   -20 LegendNANA
15:00 -11.6 -16.3 69   28 21 24.1 99.96   -20 LegendNANA
16:00 -12.4 -16.9 70   28 19 24.1 100.09   -21 Snow
17:00 -14.0 -18.0 72   29 26 24.1 100.24   -24 LegendNANA
18:00 -14.5 -18.3 73   29 25 24.1 100.41   -25 LegendNANA
19:00 -14.8 -18.6 73   29 23 24.1 100.56   -25 Mainly Clear
20:00 -15.2 -19.1 73   30 25 24.1 100.69   -25 LegendNANA
21:00 -15.9 -19.7 73   29 18 24.1 100.81   -25 LegendNANA
22:00 -16.7 -20.6 72   30 29 24.1 100.92   -28 Clear
23:00 -17.2 -21.1 72   29 22 24.1 101.06   -27 LegendNANA

Notes on Data Quality.

Legend

  • E = Estimated
  • M = Missing
  • NA = Not Available*
  • [empty] = Indicates an unobserved value
Date modified: